Погода в Дальнем

Россия / Белгородская область     49°56′58″N   38°06′32″E
темп.,
°C
ветер,
м/с
пор.,
м/с
влажн.,
%
обл.,
%
осадки,
мм/ч
давл.,
гПа
погр.,
м
11 мая, вт
вт1100:00+9с101892100 0.0 1012712
03:00+9ссв71594100 0.3 1012603
06:00+11ссв91791100 0.7 1011963
09:00+8всв6119297 1.1 1015778
12:00+10всв7106795 0.1 10171456
15:00+10всв9137399 0.2 10171385
18:00+9всв10167898 0.3 10171541
21:00+7в91488100 0.4 10181005
12 мая, ср
ср1200:00+8в91587100 0.1 10191242
03:00+8в71384100 0.2 10201081
06:00+8в71587100 0.2 10191015
09:00+8в81490100 1.2 10191060
12:00+10вюв6108592 2.4 10181079
15:00+14юв7106626 3.9 10161543
18:00+13юв510745 0.8 10151112
21:00+10ююв41285100 1.3 1016529
13 мая, чт
чт1300:00+9юв3896100 2.0 1016308
03:00+10вюв2494100 2.7 1016118
06:00+10вюв269466 0.3 1016187
09:00+16юв467317 0.6 1015604
12:00+20ююв586039 0.1 10151598
15:00+21ю465999 0.4 10141584
18:00+19в2271100 0.0 101424
21:00+17вюв3575100 0.0 101493
14 мая, пт
пт1400:00+15вюв3683100 0.0 1014106
03:00+14вюв379294 0.5 1014124
06:00+14вюв4119199 0.0 1013237
09:00+21юв7117037 0.0 1013630
12:00+24юв7958100 0.0 10121061
15:00+26ююв5754100 0.0 10111332
18:00+22в4873100 0.1 1010165
21:00+19ссз118753 2.0 101128
15 мая, сб
сб1500:00+17ююв379297 0.1 1010121
03:00+17ююв379691 3.0 1009160
06:00+17ю259352 1.7 1010130
09:00+20юз347693 1.7 1011434
12:00+24ююз455462 0.0 10111385
15:00+23юз586192 0.0 1011537
18:00+22юз48630 0.1 1011443
21:00+16зсз598113 0.3 1012172